Location: Nelson
(41.2830°S, 173.2830°E)
Time: 18:22:22
(UTC+12:00)

Cosmos 1408 - Pass Details

Date: 14 May 2021
Orbit: 468 x 490 km, 82.6° (Epoch: 19 June)

Event Time Altitude Azimuth Distance (km) Brightness Sun altitude
Rises 18:07:45 0° 343° (NNW) 2,564 6.7 -9.4°
Reaches altitude 10° 18:09:53 10° 338° (NNW) 1,693 5.9 -9.8°
Maximum altitude 18:13:31 54° 260° (W) 617 3.5 -10.4°
Drops below altitude 10° 18:17:13 10° 182° (S) 1,721 5.2 -11.1°
Sets 18:19:24 0° 177° (S) 2,612 6.1 -11.5°
